Location: Gniazdowice
(50.2124°N, 20.2673°E)
Time: 14:59:05
(UTC+00:00)

Cosmos 1908 Rocket - Pass Details

Date: 23 May 2024
Orbit: 602 x 628 km, 82.5° (Epoch: 12 June)

Event Time Altitude Azimuth Distance (km) Brightness Sun altitude
Rises 00:13:18 0° 347° (NNW) 2,923 7.9 -15.9°
Reaches altitude 10° 00:15:33 10° 345° (NNW) 2,008 6.9 -15.8°
Maximum altitude 00:19:58 65° 264° (W) 686 3.6 -15.5°
Enters shadow 00:22:21 26° 189° (S) 1,233 4.5 -15.3°
